Regional Weather Roundup
Issued by NWS Upton, NY

Current Version | Previous Version | Graphics & Text | Print | Product List | Glossary Off
Versions: 1 2 3 4 5 6 7 8 9 10 11 12 13 14 15 16 17 18 19 20 21 22 23 24 25 26 27 28 29 30

000
ASUS41 KOKX 161608
RWROKX

REGIONAL WEATHER ROUNDUP
NATIONAL WEATHER SERVICE NEW YORK NY
1100 AM EST SAT DEC 16 2017

NOTE: "FAIR" INDICATES FEW OR NO CLOUDS BELOW 12,000 FEET WITH NO
SIGNIFICANT WEATHER AND/OR OBSTRUCTIONS TO VISIBILITY.

NYZ071-072-176-178-NJZ106-104-161700-
NEW YORK CITY METRO AREA

CITY           SKY/WX    TMP DP  RH WIND       PRES   REMARKS
Central Park   CLOUDY    32  19  58 VRB6G16   30.06F WCI  26
Bronx Bot Gard   N/A     32  19  59 W12       30.06F WCI  23
Bronx Lehman C   N/A     32  19  59 W6          N/A  WCI  26
LaGuardia APRT PTSUNNY   33  18  53 SW17G26   30.05F WCI  22
Queens College   N/A     32  21  64 SW12        N/A  WCI  23
Kennedy INTL   PTSUNNY   32  21  64 W20       30.07F WCI  20
Breezy Point     N/A     32 N/A N/A W14G22      N/A  WCI  22
Brooklyn Coll    N/A     32  19  59 SW10        N/A  WCI  24
Staten Island    N/A     32  19  59 SW9         N/A  WCI  24
Newark/Liberty CLOUDY    31  20  63 SW13      30.06F WCI  21
Teterboro      CLOUDY    31  20  63 SW10      30.05F WCI  22
$$

NYZ177-179-078>081-161700-
LONG ISLAND NEW YORK

CITY           SKY/WX    TMP DP  RH WIND       PRES   REMARKS
Jones Beach      N/A     34 N/A N/A W20G25      N/A  WCI  22
Wantagh          N/A     34  21  60 W16         N/A  WCI  23
Matinecock PT    N/A     34 N/A N/A W30         N/A  WCI  20
Farmingdale    PTSUNNY   33  20  58 W13       30.05F WCI  24
MacArthur/ISP  MOSUNNY   33  20  58 W18       30.04F WCI  22
Shirley        SUNNY     33  21  61 W18G24    30.05F WCI  22
Mt Sinai Harb    N/A    N/A N/A N/A W9G16       N/A
Westhampton    MOSUNNY   33  19  56 W13G26    30.04F WCI  24
East Hampton   PTSUNNY   32  19  58 W20G28    30.02F WCI  20
Southold         N/A     34  23  64 W9          N/A  WCI  26
Montauk          N/A     36  24  62 W15G28    30.01F WCI  27
$$

NYZ052-065-067-161700-
HUDSON VALLEY

CITY           SKY/WX    TMP DP  RH WIND       PRES   REMARKS
White Plains   PTSUNNY   30  17  58 W12G20    30.01F WCI  20
Larchmont Harb   N/A    N/A N/A N/A SW21        N/A
Croton On Huds   N/A    N/A N/A N/A SW13        N/A
Somers           N/A     30  19  64 SW9         N/A  WCI  22
Brewster         N/A     30  18  59 W2          N/A
Newburgh       PTSUNNY   28  21  74 W14G25    30.00F WCI  17
Montgomery     CLOUDY    27  18  69 SW9       29.98F WCI  18
Otisville        N/A     27  19  74 SW6         N/A  WCI  20
Warwick          N/A     28  19  69 W9          N/A  WCI  20
Suffern          N/A     28  18  64 S6          N/A  WCI  22
Poughkeepsie   CLOUDY    30  17  58 SW12      30.00F WCI  20
Albany         CLOUDY    30  13  49 W8        29.94F WCI  22
$$

NJZ001-105-106-008-010-013-015-019>022-104-161700-
NEW JERSEY

CITY           SKY/WX    TMP DP  RH WIND       PRES   REMARKS
Newark/Liberty CLOUDY    31  20  63 SW13      30.06F WCI  21
Teterboro      CLOUDY    31  20  63 SW10      30.05F WCI  22
Caldwell       CLOUDY    28  18  66 W7        30.04F WCI  21
Somerville     CLOUDY    30  23  75 CALM      30.04F
Linden         CLOUDY    32  19  58 W7        30.06F WCI  25
Perth Amboy      N/A     32 N/A N/A W16         N/A  WCI  21
Sussex         CLOUDY    25  17  72 SW10      30.00F WCI  15
Andover        NOT AVBL
Trenton        PTSUNNY   35  21  56 W10G18    30.07F WCI  27
Millville      SUNNY     38  25  59 SW8G18    30.13F WCI  32
Atlantic City  SUNNY     38  24  57 SW15G23   30.11F WCI  29
Wrightstown    SUNNY     34  22  62 W12       30.05F WCI  26
Toms River     SUNNY     34  25  69 SW15G22   30.10F WCI  24
Belmar         SUNNY     35  22  58 SW14G21   30.08F WCI  26
$$

PAZ047>061-062-071-161700-
EASTERN PENNSYLVANIA

CITY           SKY/WX    TMP DP  RH WIND       PRES   REMARKS
Philadelphia   MOSUNNY   34  25  69 W16       30.12F WCI  24
Allentown      CLOUDY    32  19  58 SW10      30.03F WCI  24
Scranton       CLOUDY    29  20  69 SW13      29.96F WCI  19
$$

CTZ002-004>006-009-010-012-RIZ004-006-007-MAZ004-011-015-161700-
SOUTHERN NEW ENGLAND
 IN CT

CITY           SKY/WX    TMP DP  RH WIND       PRES   REMARKS
Bradley INTL   PTSUNNY   28  18  66 W14       29.98S WCI  17
Hartford       FLURRIES  30  18  60 VRB6      30.00F WCI  24
Danbury        PTSUNNY   30  18  60 W13       30.01F WCI  20
Wtrbury/Oxford CLOUDY    30  18  60 W8G17     29.98F WCI  22
Norwalk Harbor   N/A    N/A N/A N/A SW17        N/A
Bridgeport     MOSUNNY   33  20  58 W14G22    30.03F WCI  23
Meriden        CLOUDY    30  17  58 SW10      30.01F WCI  21
New Haven      MOSUNNY   32  20  61 W9G17     30.02F WCI  24
Chester        FAIR      30  16  55 W10G22    29.98F WCI  21
Groton         CLOUDY    32  17  54 W14       30.00F WCI  22
Wilimantic     CLOUDY    30  17  58 W12G18    29.99F WCI  20

 IN RI

CITY           SKY/WX    TMP DP  RH WIND       PRES   REMARKS
Providence     SUNNY     30  18  60 W20G25    29.98F WCI  17
Block Island   MIX PCPN  33  20  58 W13G35    30.01S WCI  24
Westerly       PTSUNNY   32  18  56 W9G20     30.00F WCI  24
 IN MA

CITY           SKY/WX    TMP DP  RH WIND       PRES   REMARKS
Boston         MOSUNNY   31  14  49 W22G28    29.92F WCI  18
Worcester      SUNNY     25  12  58 W16G24    29.89R WCI  12
Westfield      CLOUDY    26  18  71 SW6       29.96F WCI  19
Provincetown   SUNNY     32  19  58 W22G29    29.92  WCI  19
Nantucket      SUNNY     33  19  56 W24       29.95F WCI  20
$$

ANZ330-335-338-340-345-350-353-355-161700-
COASTAL MARINE OBSERVATIONS


STATION/POSITION TIME  SKY/WX   TEMP    WIND        PRES    VSBY  WAVE
                                AIR SEA DIR/SP/G                  HT/PER
                 (UTC)          (F)     (DEG/KT/KT) (MB)    (MI)  (FT/S)
NY HARB ENTRANCE 1550            37 51  260/ 23/ 29 1017.4          4/ 5
20 S FIRE ISLAND 1450            37 51  270/ 25/ 31 1018.2          7/ 6
GREAT SOUTH BAY  NOT AVBL
HUDSON CANYON    1550            40 56  290/ 25/ 33 1018.3          9/ 7
KINGS POINT      1548               41                N/A
EXECUTION ROCKS  1530            36     220/ 19/ 27   N/A
WESTERN LI SOUND NOT AVBL
CENTRAL LI SOUND NOT AVBL
ROBBINS REEF     NOT AVBL
$$


>>>>>>>>>>>>>>>>>>>>>>>>>>>> KEY <<<<<<<<<<<<<<<<<<<<<<<<<<<
>                                                          <
>     SKY/WX - Sky Condition/Present Weather               <
>     TMP    - Temperature in Fahrenheit                   <
>     DP     - Dew Point in Fahrenheit                     <
>     RH     - Relative Humidity in Percent                <
>     WIND   - Direction (from) and Speed in MPH           <
>     PRES   - Mean Sea Level Pressure (inches of Hg)      <
>     WCI    - Wind Chill Index                            <
>     VSB    - VISIBILITY IN MILES                         <
>     HX     - HEAT INDEX                                  <
>     TC     - TEMPERATURE IN CELSIUS                      <
>     VRB    - VARIABLE WIND DIRECTION                     <
>                                                          <
>>>>>>>>>>>>>>>>>>>>>>>>>>>> KEY <<<<<<<<<<<<<<<<<<<<<<<<<<<




USA.gov is the U.S. government's official web portal to all federal, state and local government web resources and services.